Weather Roundup
Issued by NWS

Home | Current Version | Previous Version | Text Only | Print | Product List | Glossary On
Versions: 1 2 3 4 5 6 7 8 9 10 11 12 13 14 15 16 17 18 19 20 21 22 23 24 25 26 27 28 29 30 31 32 33 34 35 36 37 38 39 40 41 42 43 44 45 46 47 48 49 50
000
NZUS93 KARX 251610
HRRWXR

CURRENT HOURLY OBSERVATIONS ACROSS
MUCH OF THE UPPER MISSISSIPPI VALLEY
NATIONAL WEATHER SERVICE LA CROSSE WI
1100 AM CDT THU AUG 25 2016


...SOUTHEAST MINNESOTA...


CITY           SKY/WX    TMP DP  RH WIND       PRES   REMARKS
ROCHESTER      SUNNY     73  59  61 W9        30.09R
ROCHESTER/MAYO FAIR      73  56  54 SW8       30.08R
WINONA         SUNNY     73  57  56 SW5       30.06R
AUSTIN         PTSUNNY   73  55  53 W8        30.10R
ALBERT LEA     PTSUNNY   70  61  73 W5        30.11R
DODGE CENTER   CLOUDY    72  61  68 W13       30.09R
PRESTON        SUNNY     73  58  59 W8        30.10R
OWATONNA       CLOUDY    70  59  68 W5        30.09R
FARIBAULT      CLOUDY    70  59  68 W8        30.09R
$$

...ELSEWHERE IN MINNESOTA...


CITY           SKY/WX    TMP DP  RH WIND       PRES   REMARKS
MINNEAPOLIS    PTSUNNY   71  54  54 W13       30.05R
INTNL FALLS      N/A     61  53  75 W9        29.88S
DULUTH         MOSUNNY   70  54  56 W21G26    29.95R
RED WING       MOSUNNY   75  59  57 W12       30.04R
REDWOOD FALLS  CLOUDY    64  54  69 W13       30.10R
MANKATO        CLOUDY    66  55  68 W9        30.10R
WORTHINGTON    CLOUDY    65  54  67 W6        30.15R
FAIRMONT       CLOUDY    67  55  65 NW9       30.13R
$$

...SOUTHWEST WISCONSIN...


CITY           SKY/WX    TMP DP  RH WIND       PRES   REMARKS
LA CROSSE      SUNNY     75  62  64 CALM      30.06R
PRAIRIE DU CHI CLOUDY    72  60  65 W3        30.08R
BOSCOBEL       CLOUDY    75  60  59 CALM      30.07R
LONE ROCK      SUNNY     76  61  59 VRB5      30.06R
PLATTEVILLE    SUNNY     74  64  71 N5        30.08R
FORT MC COY    SUNNY     73  61  66 W7        30.07R
CAMP DOUGLAS   MOSUNNY   73  61  64 VRB3      30.05R
MAUSTON-NEW LI CLOUDY    72  63  72 CALM      30.05R
VIROQUA        FAIR      72  60  67 CALM      30.08R
WIS DELLS      SUNNY     74  58  57 NW5       30.06R
$$

...ELSEWHERE IN WISCONSIN...


CITY           SKY/WX    TMP DP  RH WIND       PRES   REMARKS
MILWAUKEE      MOSUNNY   78  61  55 NW7       30.02R
MADISON        PTSUNNY   76  61  59 NW6       30.05R
GREEN BAY      CLOUDY    72  62  71 W7        30.00S
EAU CLAIRE     SUNNY     75  60  59 SW8       30.02R
BLACK RVR FLS  FAIR      75  61  62 SW6       30.05R
MEDFORD        SUNNY     71  58  65 SW10      30.03R
WAUSAU         SUNNY     74  56  53 W10       30.01R
WIS RAPIDS     CLOUDY    73  62  68 VRB6      30.05R
MARSHFIELD     SUNNY     75  59  57 W8        30.04R
RICE LAKE      SUNNY     71  59  66 SW12      30.03R
$$

...NORTHEAST IOWA...


CITY           SKY/WX    TMP DP  RH WIND       PRES   REMARKS
WATERLOO       CLOUDY    73  61  65 NW7       30.09R
DUBUQUE        MOSUNNY   75  62  64 N7        30.09R
DECORAH        SUNNY     72  61  68 VRB5      30.09R
MASON CITY     CLOUDY    72  60  66 W6        30.13R
CHARLES CITY   CLOUDY    72  61  68 W5        30.11S
OELWEIN        MOSUNNY   73  63  68 NW5       30.11R
$$

...ELSEWHERE IN IOWA...


CITY           SKY/WX    TMP DP  RH WIND       PRES   REMARKS
DES MOINES     LGT RAIN  70  63  78 NW7       30.12R
IOWA CITY      CLOUDY    74  62  66 N5        30.09R
FORT DODGE     CLOUDY    70  61  73 CALM      30.14R
MARSHALLTOWN   PTSUNNY   73  63  70 NW6       30.11R
CEDAR RAPIDS   PTSUNNY   75  62  64 N5        30.09R
$$

...NORTHERN ILLINOIS...


CITY           SKY/WX    TMP DP  RH WIND       PRES   REMARKS
CHICAGO-OHARE  CLOUDY    75  69  81 N7        30.02R
CHICAGO-MIDWAY CLOUDY    76  70  82 W7        30.02R
MOLINE         CLOUDY    77  64  64 VRB5      30.07R
ROCKFORD       PTSUNNY   76  64  66 W3        30.06R
PEORIA         CLOUDY    77  73  87 NW3       30.07R
$$

NOTE: "FAIR" INDICATES FEW OR NO CLOUDS BELOW 12,000 FEET WITH NO
SIGNIFICANT WEATHER AND/OR OBSTRUCTIONS TO VISIBILITY. WIND
SPEEDS ARE IN MILES-PER-HOUR.




USA.gov is the U.S. government's official web portal to all federal, state and local government web resources and services.